Location: Rancho Del Sol Observatory
(38.7214°N, 120.6350°W)
Time: 15:56:49
(UTC-08:00)

ISS - Visible Passes

Search period start: 06 December 2019 00:00
Search period end: 16 December 2019 00:00
Orbit: 411 x 421 km, 51.6° (Epoch: 07 December)

Date Brightness Start Highest point End Pass type
(mag) Time Alt. Az. Time Alt. Az. Time Alt. Az.
06 Dec -1.6 17:11:04 10° NNW 17:12:37 13° NNE 17:14:10 10° NE visible
06 Dec -1.4 18:46:46 10° NW 18:47:44 17° NW 18:47:44 17° NW visible
07 Dec -2.8 17:58:28 10° NNW 18:01:27 29° NNE 18:01:39 29° NE visible
08 Dec -2.2 17:10:13 10° NNW 17:12:49 20° NNE 17:15:24 10° ENE visible
08 Dec -2.3 18:46:28 10° WNW 18:48:43 37° WNW 18:48:43 37° WNW visible
09 Dec -3.9 17:57:58 10° NW 18:01:18 76° NE 18:03:09 24° ESE visible
10 Dec -3.3 17:09:32 10° NW 17:12:46 43° NE 17:15:58 10° ESE visible
10 Dec -1.1 18:46:50 10° W 18:49:17 19° SW 18:51:01 13° SSW visible
11 Dec -2.0 17:57:50 10° WNW 18:00:54 34° SW 18:03:57 10° SSE visible
12 Dec -3.2 17:09:07 10° WNW 17:12:27 64° SW 17:15:45 10° SE visible
13 Dec -0.2 17:59:03 10° WSW 18:00:14 11° SW 18:01:24 10° SSW visible
14 Dec -0.6 17:09:18 10° W 17:11:52 21° SW 17:14:26 10° S visible
